This is the latest recevied weather packets stored in our database for station/object EA3BNF-1. If no packets are shown the sender has not sent any weather packets the latest 10 day(s).
| Time | Temp. | Humidity | Pressure | Rain* | Wind** | Luminosity | Snow |
|---|---|---|---|---|---|---|---|
| 1777992119 | 22.78° C | 58% | 1010.2 hPa | - | - | - | - |
| 1777991463 | 22.78° C | 58% | 1010.2 hPa | - | - | - | - |
| 1777990808 | 22.78° C | 58% | 1010.1 hPa | - | - | - | - |
| 1777989496 | 22.78° C | 57% | 1010.2 hPa | - | - | - | - |
| 1777988840 | 22.78° C | 59% | 1010.2 hPa | - | - | - | - |
| 1777988185 | 22.22° C | 59% | 1010.2 hPa | - | - | - | - |
| 1777987531 | 22.22° C | 59% | 1010.3 hPa | - | - | - | - |
| 1777986874 | 21.67° C | 59% | 1010.5 hPa | - | - | - | - |
| 1777986216 | 21.67° C | 58% | 1010.5 hPa | - | - | - | - |
| 1777985561 | 21.67° C | 58% | 1010.6 hPa | - | - | - | - |
| 1777984905 | 21.67° C | 57% | 1010.7 hPa | - | - | - | - |
| 1777984249 | 21.67° C | 59% | 1010.7 hPa | - | - | - | - |
| 1777983593 | 21.67° C | 58% | 1010.9 hPa | - | - | - | - |
| 1777982938 | 21.67° C | 56% | 1010.9 hPa | - | - | - | - |
| 1777982282 | 21.67° C | 57% | 1011 hPa | - | - | - | - |
| 1777981627 | 21.67° C | 58% | 1011.2 hPa | - | - | - | - |
| 1777980971 | 21.67° C | 57% | 1011.4 hPa | - | - | - | - |
| 1777980315 | 21.67° C | 59% | 1011.4 hPa | - | - | - | - |
| 1777979660 | 21.67° C | 58% | 1011.5 hPa | - | - | - | - |
| 1777979004 | 21.67° C | 58% | 1011.6 hPa | - | - | - | - |
| 1777978348 | 21.67° C | 60% | 1011.6 hPa | - | - | - | - |
| 1777977693 | 21.67° C | 57% | 1011.6 hPa | - | - | - | - |
| 1777977037 | 21.11° C | 60% | 1011.7 hPa | - | - | - | - |
| 1777976130 | 20.56° C | 60% | 1011.8 hPa | - | - | - | - |
| 1777975474 | 21.11° C | 60% | 1011.7 hPa | - | - | - | - |
* Rain since midnight (hover to see other rain measurements)
** Current wind speed in m/s (hover to see current wind gust speed)